Погода в Китакюсю

Япония     33°51′36″N   130°51′15″E
темп.,
°C
ветер,
м/с
пор.,
м/с
влажн.,
%
обл.,
%
осадки,
мм/ч
давл.,
гПа
погр.,
м
22 октября, пт
пт2200:00+13ю2382100 0.0 1016104
03:00+12ююз1188100 0.1 101629
06:00+12ююв008595 0.3 101650
09:00+14сз1384100 1.3 1017233
12:00+17ссз476432 2.0 10171365
15:00+17ссз5757100 2.6 10161601
18:00+15сз5853100 0.1 10181163
21:00+13ссз597946 1.4 1020675
23 октября, сб
сб2300:00+13с368555 3.3 1020253
03:00+12св310855 4.9 1022572
06:00+11св138575 0.1 102472
09:00+14всв267442 0.2 1026546
12:00+18ссв574016 0.0 10252158
15:00+18ссв67446 0.0 10251922
18:00+15св48541 0.0 1026844
21:00+13всв26590 0.0 1027377
24 октября, вс
вс2400:00+12всв26602 0.0 1027187
03:00+12вюв1165100 0.0 102728
06:00+11в116887 0.0 102725
09:00+15вюв1455100 0.0 1028629
12:00+18в3343100 0.0 10261248
15:00+17в3342100 0.0 10241103
18:00+15всв125444 0.0 102490
21:00+14в126241 0.0 102543
25 октября, пн
пн2500:00+13вюв117091 0.0 102427
03:00+12ююв1175100 0.0 102419
06:00+12вюв11807 0.0 102311
09:00+16в1267100 0.0 1023397
12:00+17з0063100 0.0 1023768
15:00+19с23490 0.0 10201469
18:00+15ссв23600 0.0 102161
21:00+14в11680 0.0 102214
26 октября, вт
вт2600:00+13в1175100 0.0 102116
03:00+13в1183100 0.0 102011
06:00+12вюв11865 0.0 102013
09:00+16в126996 0.0 1021444
12:00+20св215419 0.0 10191073
15:00+21св2150100 0.0 10171120
18:00+17всв1267100 0.0 101750
21:00+15ююв117945 0.0 101815